User: anonymous   Login
Location: Unspecified
(37.2150°N, 0.0000°E)
Time: 11:47:04
(UTC+00:00)
Language:

N. Korean satellite - Orbit

View from above orbital plane
View from above orbital plane
View from above satellite
View from above satellite

Ground track
Ground track

The orbit data is extracted from the following two-line orbital elements,

1 39026U 12072A   20217.49247827  .00001739  00000-0  63565-4 0  9996
2 39026  97.2245 212.8719 0039053  73.9290 286.6245 15.28708491424649
Epoch (UTC): 04 August 2020 11:49:10
Eccentricity: 0.0039053
inclination: 97.2245°
perigee height: 453 km
apogee height: 506 km
right ascension of ascending node: 212.8719°
argument of perigee: 73.9290°
revolutions per day: 15.28708491
mean anomaly at epoch: 286.6245°
orbit number at epoch: 42464

The dashed part of the orbit path shows where the satellite is in the earth's shadow,  

DLR